User: anonymous   Login
Location: Geremba
(10.4250°N, 67.2394°W)
Time: 07:51:50
(UTC+00:00)
Language:

Cosmos 2333 - Orbit

View from above orbital plane
View from above orbital plane
View from above satellite
View from above satellite

Ground track
Ground track

The orbit data is extracted from the following two-line orbital elements,

1 24297U 96051A   24201.86527857 -.00000013  00000-0  18660-4 0  9992
2 24297  70.9044   3.3197 0025977 278.6417  81.1761 14.13583746437749
Epoch (UTC): 19 July 2024 20:46:00
Eccentricity: 0.0025977
inclination: 70.9044°
perigee height: 828 km
apogee height: 866 km
right ascension of ascending node: 3.3197°
argument of perigee: 278.6417°
revolutions per day: 14.13583746
mean anomaly at epoch: 81.1761°
orbit number at epoch: 43774

The dashed part of the orbit path shows where the satellite is in the earth's shadow,  

DLR